Time,TemperatureF,DewpointF,PressureIn,WindDirection,WindDirectionDegrees,WindSpeedMPH,WindSpeedGustMPH,Humidity,HourlyPrecipIn,Conditions,Clouds,dailyrainin,SoftwareType,DateUTC
2013-02-20 00:01:00,75.4,68.8,30.00,SE,135,5.1,154.4,80,0.00,,---,0.00,VWS V14.01,2013-02-20 04:01:00,
2013-02-20 00:06:00,75.4,68.8,30.00,West,270,5.4,154.4,80,0.00,,---,0.00,VWS V14.01,2013-02-20 04:06:00,
2013-02-20 00:11:00,75.2,69.0,30.00,East,90,4.5,154.4,81,0.00,,---,0.00,VWS V14.01,2013-02-20 04:11:00,
2013-02-20 00:16:00,75.2,69.0,30.00,SE,135,9.8,154.4,81,0.00,,---,0.00,VWS V14.01,2013-02-20 04:16:00,
2013-02-20 00:21:00,75.4,69.2,30.00,East,90,6.9,154.4,81,0.00,,---,0.00,VWS V14.01,2013-02-20 04:21:00,
2013-02-20 00:26:00,75.4,69.2,30.00,East,90,6.7,154.4,81,0.00,,---,0.00,VWS V14.01,2013-02-20 04:26:00,
2013-02-20 00:31:00,75.4,68.8,30.00,East,90,4.7,154.4,80,0.00,,---,0.00,VWS V14.01,2013-02-20 04:31:00,
2013-02-20 00:36:00,75.4,68.8,29.99,NNE,22,3.6,154.4,80,0.00,,---,0.00,VWS V14.01,2013-02-20 04:36:00,
2013-02-20 00:41:00,75.4,68.4,29.99,NNE,22,6.5,154.4,79,0.00,,---,0.00,VWS V14.01,2013-02-20 04:41:00,
2013-02-20 00:46:00,75.4,68.1,29.99,South,180,6.7,154.4,78,0.00,,---,0.00,VWS V14.01,2013-02-20 04:46:00,
2013-02-20 00:51:00,75.6,68.3,29.99,SSW,202,5.1,154.4,78,0.00,,---,0.00,VWS V14.01,2013-02-20 04:51:00,
2013-02-20 00:56:00,75.6,67.9,29.99,WSW,248,6.0,154.4,77,0.00,,---,0.00,VWS V14.01,2013-02-20 04:56:00,
2013-02-20 01:00:00,75.6,67.9,29.99,SSE,158,7.8,154.4,77,0.00,,---,0.00,VWS V14.01,2013-02-20 05:00:00,
2013-02-20 01:06:00,75.4,67.3,29.99,SW,225,4.0,154.4,76,0.00,,---,0.00,VWS V14.01,2013-02-20 05:06:00,
2013-02-20 01:11:00,75.2,67.1,29.99,South,180,6.3,154.4,76,0.00,,---,0.00,VWS V14.01,2013-02-20 05:11:00,
2013-02-20 01:16:00,75.2,67.1,29.99,East,90,6.9,154.4,76,0.00,,---,0.00,VWS V14.01,2013-02-20 05:16:00,
2013-02-20 01:39:00,75.1,66.6,29.98,ESE,112,4.0,154.4,75,0.00,,---,0.00,VWS V14.01,2013-02-20 05:39:00,
2013-02-20 01:51:00,36.3,36.3,30.19,North,0,0.0,0.0,100,0.00,,---,0.06,VWS V14.01,2013-02-20 05:51:00,
2013-02-20 01:56:00,167.0,0.0,30.19,North,0,0.0,0.0,0,0.00,,---,0.00,VWS V14.01,2013-02-20 05:56:00,
2013-02-20 02:01:00,75.1,68.2,29.97,WSW,248,2.7,0.0,79,0.00,,---,15.00,VWS V14.01,2013-02-20 06:01:00,
2013-02-20 02:06:00,75.2,67.9,29.97,SSE,158,5.8,0.0,78,0.00,,---,15.00,VWS V14.01,2013-02-20 06:06:00,
2013-02-20 02:11:00,75.2,67.9,29.96,North,0,5.4,0.0,78,0.00,,---,15.00,VWS V14.01,2013-02-20 06:11:00,
2013-02-20 02:16:00,75.2,68.2,29.96,NE,45,4.0,0.0,79,0.00,,---,15.00,VWS V14.01,2013-02-20 06:16:00,
2013-02-20 02:21:00,75.1,68.2,29.96,SE,135,6.3,0.0,79,0.00,,---,15.00,VWS V14.01,2013-02-20 06:21:00,
2013-02-20 02:26:00,74.9,67.9,29.96,SSW,202,2.7,0.0,79,0.00,,---,15.00,VWS V14.01,2013-02-20 06:26:00,
2013-02-20 02:31:00,74.9,67.6,29.96,SE,135,4.5,0.0,78,0.00,,---,15.00,VWS V14.01,2013-02-20 06:31:00,
2013-02-20 02:36:00,74.9,67.9,29.96,SW,225,5.4,0.0,79,0.00,,---,15.00,VWS V14.01,2013-02-20 06:36:00,
2013-02-20 02:41:00,74.9,68.3,29.96,SE,135,5.6,0.0,80,0.00,,---,15.00,VWS V14.01,2013-02-20 06:41:00,
2013-02-20 02:46:00,74.9,67.9,29.95,ENE,68,4.0,0.0,79,0.00,,---,15.00,VWS V14.01,2013-02-20 06:46:00,
2013-02-20 02:51:00,74.9,67.6,29.95,SSE,158,4.5,0.0,78,0.00,,---,15.00,VWS V14.01,2013-02-20 06:51:00,
2013-02-20 02:57:00,74.9,67.6,29.95,ESE,112,5.6,0.0,78,0.00,,---,15.00,VWS V14.01,2013-02-20 06:57:00,
2013-02-20 03:02:00,74.9,67.6,29.95,SE,135,5.4,0.0,78,0.00,,---,15.00,VWS V14.01,2013-02-20 07:02:00,
2013-02-20 03:07:00,74.9,67.2,29.95,SE,135,6.7,0.0,77,0.00,,---,15.00,VWS V14.01,2013-02-20 07:07:00,
2013-02-20 03:12:00,74.9,66.8,29.95,SW,225,6.3,0.0,76,0.00,,---,15.00,VWS V14.01,2013-02-20 07:12:00,
2013-02-20 03:17:00,75.1,67.8,29.95,SE,135,4.9,0.0,78,0.00,,---,15.00,VWS V14.01,2013-02-20 07:17:00,
2013-02-20 03:22:00,75.2,67.9,29.95,ENE,68,4.7,0.0,78,0.00,,---,15.00,VWS V14.01,2013-02-20 07:22:00,
2013-02-20 03:27:00,75.4,68.4,29.95,East,90,5.8,0.0,79,0.00,,---,15.00,VWS V14.01,2013-02-20 07:27:00,
2013-02-20 03:32:00,75.2,67.5,29.95,SE,135,6.0,0.0,77,0.00,,---,15.00,VWS V14.01,2013-02-20 07:32:00,
2013-02-20 03:37:00,75.1,67.8,29.94,ESE,112,4.7,0.0,78,0.00,,---,15.00,VWS V14.01,2013-02-20 07:37:00,
2013-02-20 03:42:00,75.1,68.5,29.94,SW,225,4.7,0.0,80,0.00,,---,15.00,VWS V14.01,2013-02-20 07:42:00,
2013-02-20 03:47:00,75.1,68.5,29.94,ENE,68,3.6,0.0,80,0.00,,---,15.00,VWS V14.01,2013-02-20 07:47:00,
2013-02-20 03:52:00,74.9,68.7,29.94,SE,135,6.0,0.0,81,0.00,,---,15.00,VWS V14.01,2013-02-20 07:52:00,
2013-02-20 03:57:00,75.1,68.9,29.94,West,270,7.8,0.0,81,0.00,,---,15.00,VWS V14.01,2013-02-20 07:57:00,
2013-02-20 04:05:00,75.1,68.9,29.94,SSW,202,6.7,0.0,81,0.00,,---,15.00,VWS V14.01,2013-02-20 08:05:00,
2013-02-20 04:10:00,74.9,68.3,29.94,SE,135,4.7,0.0,80,0.00,,---,15.00,VWS V14.01,2013-02-20 08:10:00,
2013-02-20 04:15:00,74.9,68.7,29.94,NW,315,4.7,0.0,81,0.00,,---,15.00,VWS V14.01,2013-02-20 08:15:00,
2013-02-20 04:20:00,75.1,68.9,29.94,NNW,338,5.4,0.0,81,0.00,,---,15.00,VWS V14.01,2013-02-20 08:20:00,
2013-02-20 04:25:00,75.1,68.9,29.94,SW,225,5.8,0.0,81,0.00,,---,15.00,VWS V14.01,2013-02-20 08:25:00,
2013-02-20 04:30:00,75.1,69.2,29.94,South,180,4.3,0.0,82,0.00,,---,15.00,VWS V14.01,2013-02-20 08:30:00,
2013-02-20 04:35:00,75.2,69.3,29.94,South,180,5.4,0.0,82,0.00,,---,15.00,VWS V14.01,2013-02-20 08:35:00,
2013-02-20 04:40:00,75.4,69.5,29.94,NE,45,4.7,0.0,82,0.00,,---,15.00,VWS V14.01,2013-02-20 08:40:00,
2013-02-20 04:45:00,75.4,69.2,29.94,SSE,158,5.1,0.0,81,0.00,,---,15.00,VWS V14.01,2013-02-20 08:45:00,
2013-02-20 04:50:00,75.2,68.6,29.94,SSW,202,5.4,0.0,80,0.00,,---,15.00,VWS V14.01,2013-02-20 08:50:00,
2013-02-20 04:55:00,75.1,68.5,29.94,NW,315,6.9,0.0,80,0.00,,---,15.00,VWS V14.01,2013-02-20 08:55:00,
2013-02-20 05:00:00,75.1,68.2,29.95,ENE,68,5.1,0.0,79,0.00,,---,15.00,VWS V14.01,2013-02-20 09:00:00,
2013-02-20 05:05:00,75.1,68.2,29.95,SSW,202,4.3,0.0,79,0.00,,---,15.00,VWS V14.01,2013-02-20 09:05:00,
2013-02-20 05:10:00,74.9,67.6,29.95,SSE,158,2.9,0.0,78,0.00,,---,15.00,VWS V14.01,2013-02-20 09:10:00,
2013-02-20 05:15:00,75.1,68.2,29.95,ESE,112,3.8,0.0,79,0.00,,---,15.00,VWS V14.01,2013-02-20 09:15:00,
2013-02-20 05:20:00,75.1,68.2,29.95,ESE,112,7.2,0.0,79,0.00,,---,15.00,VWS V14.01,2013-02-20 09:20:00,
2013-02-20 05:25:00,75.1,68.2,29.95,ESE,112,6.3,0.0,79,0.00,,---,15.00,VWS V14.01,2013-02-20 09:25:00,
2013-02-20 05:30:00,74.9,67.9,29.95,SSE,158,4.7,0.0,79,0.00,,---,15.00,VWS V14.01,2013-02-20 09:30:00,
2013-02-20 05:35:00,74.9,67.9,29.96,East,90,5.1,0.0,79,0.00,,---,15.00,VWS V14.01,2013-02-20 09:35:00,
2013-02-20 05:40:00,74.9,67.6,29.95,SSE,158,4.5,0.0,78,0.00,,---,15.00,VWS V14.01,2013-02-20 09:40:00,
2013-02-20 05:45:00,74.9,67.2,29.96,SSE,158,6.3,0.0,77,0.00,,---,15.00,VWS V14.01,2013-02-20 09:45:00,
2013-02-20 05:50:00,74.9,67.2,29.96,SSW,202,4.0,0.0,77,0.00,,---,15.00,VWS V14.01,2013-02-20 09:50:00,
2013-02-20 05:55:00,75.1,67.4,29.96,SSE,158,3.6,0.0,77,0.00,,---,15.00,VWS V14.01,2013-02-20 09:55:00,
2013-02-20 06:00:00,75.1,67.8,29.96,SE,135,7.2,0.0,78,0.00,,---,15.00,VWS V14.01,2013-02-20 10:00:00,
2013-02-20 06:05:00,75.2,67.9,29.96,SSE,158,5.8,0.0,78,0.00,,---,15.00,VWS V14.01,2013-02-20 10:05:00,
2013-02-20 06:10:00,74.9,67.6,29.96,ESE,112,4.0,0.0,78,0.00,,---,15.00,VWS V14.01,2013-02-20 10:10:00,
2013-02-20 06:16:00,75.1,68.5,29.97,SSE,158,5.1,0.0,80,0.00,,---,15.00,VWS V14.01,2013-02-20 10:16:00,
2013-02-20 06:21:00,74.9,68.3,29.96,SSW,202,3.6,0.0,80,0.00,,---,15.00,VWS V14.01,2013-02-20 10:21:00,
2013-02-20 06:26:00,74.9,68.3,29.97,SSE,158,8.7,0.0,80,0.00,,---,15.00,VWS V14.01,2013-02-20 10:26:00,
2013-02-20 06:31:00,74.9,68.3,29.97,SSW,202,7.6,0.0,80,0.00,,---,15.00,VWS V14.01,2013-02-20 10:31:00,
2013-02-20 06:36:00,75.1,68.5,29.97,SE,135,3.4,0.0,80,0.00,,---,15.00,VWS V14.01,2013-02-20 10:36:00,
2013-02-20 06:41:00,75.1,68.5,29.98,SE,135,4.9,0.0,80,0.00,,---,15.00,VWS V14.01,2013-02-20 10:41:00,
2013-02-20 06:46:00,75.1,68.5,29.98,SE,135,3.8,0.0,80,0.00,,---,15.00,VWS V14.01,2013-02-20 10:46:00,
2013-02-20 06:51:00,75.2,69.0,29.98,East,90,4.7,0.0,81,0.00,,---,15.00,VWS V14.01,2013-02-20 10:51:00,
2013-02-20 06:56:00,75.2,69.0,29.98,North,0,3.1,0.0,81,0.00,,---,15.00,VWS V14.01,2013-02-20 10:56:00,
2013-02-20 07:01:00,75.2,68.2,29.98,SE,135,6.3,0.0,79,0.00,,---,15.00,VWS V14.01,2013-02-20 11:01:00,
2013-02-20 07:06:00,75.4,68.4,29.98,SE,135,6.3,0.0,79,0.00,,---,15.00,VWS V14.01,2013-02-20 11:06:00,
2013-02-20 07:11:00,75.6,69.4,29.99,West,270,7.6,0.0,81,0.00,,---,15.00,VWS V14.01,2013-02-20 11:11:00,
2013-02-20 07:16:00,74.7,68.5,29.99,SE,135,6.5,0.0,81,0.00,,---,15.00,VWS V14.01,2013-02-20 11:16:00,
2013-02-20 07:21:00,73.8,68.3,29.99,SE,135,6.9,0.0,83,0.00,,---,15.00,VWS V14.01,2013-02-20 11:21:00,
2013-02-20 07:26:00,73.1,68.3,29.99,NNE,22,6.0,0.0,85,0.00,,---,15.00,VWS V14.01,2013-02-20 11:26:00,
2013-02-20 07:31:00,72.9,68.5,29.99,NW,315,5.6,0.0,86,0.00,,---,15.00,VWS V14.01,2013-02-20 11:31:00,
2013-02-20 07:36:00,73.1,68.7,29.99,North,0,8.5,0.0,86,0.00,,---,15.00,VWS V14.01,2013-02-20 11:36:00,
2013-02-20 07:41:00,72.9,67.4,29.99,SSW,202,4.9,0.0,83,0.00,,---,15.00,VWS V14.01,2013-02-20 11:41:00,
2013-02-20 07:46:00,73.1,68.0,30.00,SE,135,4.3,0.0,84,0.00,,---,15.00,VWS V14.01,2013-02-20 11:46:00,
2013-02-20 07:51:00,73.3,67.1,30.00,ENE,68,7.2,0.0,81,0.00,,---,15.00,VWS V14.01,2013-02-20 11:51:00,
2013-02-20 07:56:00,73.6,66.3,30.00,SSW,202,4.3,0.0,78,0.00,,---,15.00,VWS V14.01,2013-02-20 11:56:00,
2013-02-20 08:01:00,74.3,65.9,30.00,SSE,158,6.9,0.0,75,0.00,,---,15.00,VWS V14.01,2013-02-20 12:01:00,
2013-02-20 08:06:00,74.9,66.8,30.00,South,180,8.1,0.0,76,0.00,,---,15.00,VWS V14.01,2013-02-20 12:06:00,
2013-02-20 08:11:00,74.9,66.8,30.00,SSE,158,3.8,0.0,76,0.00,,---,15.00,VWS V14.01,2013-02-20 12:11:00,
2013-02-20 08:16:00,74.9,67.2,30.00,SE,135,4.0,0.0,77,0.00,,---,15.00,VWS V14.01,2013-02-20 12:16:00,
2013-02-20 08:21:00,75.1,67.0,30.00,SE,135,5.4,0.0,76,0.00,,---,15.00,VWS V14.01,2013-02-20 12:21:00,
2013-02-20 08:27:00,75.2,67.5,30.01,SSW,202,6.9,0.0,77,0.00,,---,15.00,VWS V14.01,2013-02-20 12:27:00,
2013-02-20 08:32:00,75.2,68.2,30.01,East,90,7.2,0.0,79,0.00,,---,15.00,VWS V14.01,2013-02-20 12:32:00,
2013-02-20 08:37:00,74.9,68.7,30.01,ESE,112,5.8,0.0,81,0.00,,---,15.00,VWS V14.01,2013-02-20 12:37:00,
2013-02-20 08:42:00,74.5,69.0,30.02,SE,135,4.9,0.0,83,0.00,,---,15.00,VWS V14.01,2013-02-20 12:42:00,
2013-02-20 08:47:00,74.3,68.1,30.02,SW,225,3.6,0.0,81,0.00,,---,15.00,VWS V14.01,2013-02-20 12:47:00,
2013-02-20 08:52:00,74.2,68.0,30.02,ENE,68,4.9,0.0,81,0.00,,---,15.00,VWS V14.01,2013-02-20 12:52:00,
2013-02-20 08:57:00,73.6,67.8,30.03,SSW,202,7.2,0.0,82,0.00,,---,15.00,VWS V14.01,2013-02-20 12:57:00,
2013-02-20 09:02:00,72.5,66.7,30.03,NNE,22,3.8,0.0,82,0.00,,---,15.00,VWS V14.01,2013-02-20 13:02:00,
2013-02-20 09:07:00,72.0,66.9,30.03,WNW,292,3.4,0.0,84,0.00,,---,15.00,VWS V14.01,2013-02-20 13:07:00,
2013-02-20 09:12:00,71.8,66.7,30.03,SE,135,7.6,0.0,84,0.00,,---,15.00,VWS V14.01,2013-02-20 13:12:00,
2013-02-20 09:17:00,71.8,66.4,30.03,ENE,68,1.8,0.0,83,0.00,,---,15.00,VWS V14.01,2013-02-20 13:17:00,
2013-02-20 09:22:00,72.2,67.1,30.03,ESE,112,3.4,0.0,84,0.00,,---,15.00,VWS V14.01,2013-02-20 13:22:00,
2013-02-20 09:27:00,72.7,67.6,30.03,ESE,112,4.3,0.0,84,0.00,,---,15.00,VWS V14.01,2013-02-20 13:27:00,
2013-02-20 09:32:00,73.4,68.3,30.03,ESE,112,2.7,0.0,84,0.00,,---,15.00,VWS V14.01,2013-02-20 13:32:00,
2013-02-20 09:37:00,74.2,68.7,30.03,East,90,4.3,0.0,83,0.00,,---,15.00,VWS V14.01,2013-02-20 13:37:00,
2013-02-20 09:42:00,75.2,69.0,30.03,SW,225,5.4,0.0,81,0.00,,---,15.00,VWS V14.01,2013-02-20 13:42:00,
2013-02-20 09:47:00,76.3,69.3,30.03,North,0,5.4,0.0,79,0.00,,---,15.00,VWS V14.01,2013-02-20 13:47:00,
2013-02-20 09:52:00,77.6,69.8,30.02,NNE,22,4.3,0.0,77,0.00,,---,15.00,VWS V14.01,2013-02-20 13:52:00,
2013-02-20 09:57:00,78.5,69.9,30.02,NE,45,3.1,0.0,75,0.00,,---,15.00,VWS V14.01,2013-02-20 13:57:00,
2013-02-20 10:02:00,78.8,69.0,30.02,East,90,6.7,0.0,72,0.00,,---,15.00,VWS V14.01,2013-02-20 14:02:00,
2013-02-20 10:07:00,79.0,68.4,30.02,ESE,112,4.7,0.0,70,0.00,,---,15.00,VWS V14.01,2013-02-20 14:07:00,
2013-02-20 10:12:00,78.5,68.3,30.02,North,0,3.1,0.0,71,0.00,,---,15.00,VWS V14.01,2013-02-20 14:12:00,
2013-02-20 10:17:00,77.4,68.1,30.02,NNE,22,3.1,0.0,73,0.00,,---,15.00,VWS V14.01,2013-02-20 14:17:00,
2013-02-20 10:22:00,76.0,68.3,30.02,West,270,4.7,0.0,77,0.00,,---,15.00,VWS V14.01,2013-02-20 14:22:00,
2013-02-20 10:27:00,75.1,68.5,30.02,ESE,112,4.9,0.0,80,0.00,,---,15.00,VWS V14.01,2013-02-20 14:27:00,
2013-02-20 10:32:00,74.9,68.7,30.02,ESE,112,5.1,0.0,81,0.00,,---,15.00,VWS V14.01,2013-02-20 14:32:00,
2013-02-20 10:38:00,74.9,69.0,30.02,SSW,202,4.7,0.0,82,0.00,,---,15.00,VWS V14.01,2013-02-20 14:38:00,
2013-02-20 10:43:00,75.1,68.9,30.02,SE,135,6.0,0.0,81,0.00,,---,15.00,VWS V14.01,2013-02-20 14:43:00,
2013-02-20 10:48:00,75.2,67.5,30.01,ESE,112,6.7,0.0,77,0.00,,---,15.00,VWS V14.01,2013-02-20 14:48:00,
2013-02-20 10:53:00,75.8,65.7,30.01,SSE,158,4.7,0.0,71,0.00,,---,15.00,VWS V14.01,2013-02-20 14:53:00,
2013-02-20 10:58:00,76.7,67.4,30.01,ENE,68,4.3,0.0,73,0.00,,---,15.00,VWS V14.01,2013-02-20 14:58:00,
2013-02-20 11:03:00,77.0,67.3,30.00,SSE,158,6.0,0.0,72,0.00,,---,15.00,VWS V14.01,2013-02-20 15:03:00,
2013-02-20 11:08:00,77.6,67.5,30.00,ESE,112,4.0,0.0,71,0.00,,---,15.00,VWS V14.01,2013-02-20 15:08:00,
2013-02-20 11:13:00,78.1,68.3,30.00,ESE,112,4.3,0.0,72,0.00,,---,15.00,VWS V14.01,2013-02-20 15:13:00,
2013-02-20 11:18:00,78.7,69.3,30.00,SE,135,4.0,0.0,73,0.00,,---,15.00,VWS V14.01,2013-02-20 15:18:00,
2013-02-20 11:23:00,78.8,69.8,29.99,SE,135,3.4,0.0,74,0.00,,---,15.00,VWS V14.01,2013-02-20 15:23:00,
2013-02-20 11:28:00,79.4,70.4,29.99,SSW,202,5.1,0.0,74,0.00,,---,15.00,VWS V14.01,2013-02-20 15:28:00,
2013-02-20 11:33:00,79.6,70.6,29.99,ESE,112,3.6,0.0,74,0.00,,---,15.00,VWS V14.01,2013-02-20 15:33:00,
2013-02-20 11:38:00,79.6,70.6,29.99,ENE,68,4.5,0.0,74,0.00,,---,15.00,VWS V14.01,2013-02-20 15:38:00,
2013-02-20 11:43:00,79.9,70.9,29.98,ENE,68,5.1,0.0,74,0.00,,---,15.00,VWS V14.01,2013-02-20 15:43:00,
2013-02-20 11:48:00,79.4,70.4,29.98,East,90,4.5,0.0,74,0.00,,---,15.00,VWS V14.01,2013-02-20 15:48:00,
2013-02-20 11:53:00,79.2,70.6,29.98,NE,45,1.1,0.0,75,0.00,,---,15.00,VWS V14.01,2013-02-20 15:53:00,
2013-02-20 11:58:00,79.2,71.0,29.98,NE,45,4.7,0.0,76,0.00,,---,15.00,VWS V14.01,2013-02-20 15:58:00,
2013-02-20 12:04:00,79.2,71.0,29.97,South,180,4.7,0.0,76,0.00,,---,15.00,VWS V14.01,2013-02-20 16:04:00,
2013-02-20 12:09:00,79.2,71.0,29.97,ESE,112,3.4,0.0,76,0.00,,---,15.00,VWS V14.01,2013-02-20 16:09:00,
2013-02-20 12:14:00,79.6,70.2,29.97,ENE,68,5.8,0.0,73,0.00,,---,15.00,VWS V14.01,2013-02-20 16:14:00,
2013-02-20 12:19:00,79.7,69.9,29.97,North,0,5.6,0.0,72,0.00,,---,15.00,VWS V14.01,2013-02-20 16:19:00,
2013-02-20 12:24:00,80.6,70.8,29.96,South,180,7.8,0.0,72,0.00,,---,15.00,VWS V14.01,2013-02-20 16:24:00,
2013-02-20 12:29:00,80.6,70.8,29.96,SE,135,4.0,0.0,72,0.00,,---,15.00,VWS V14.01,2013-02-20 16:29:00,
2013-02-20 12:34:00,80.3,70.5,29.96,North,0,5.4,0.0,72,0.00,,---,15.00,VWS V14.01,2013-02-20 16:34:00,
2013-02-20 12:39:00,79.9,70.1,29.96,ENE,68,6.9,0.0,72,0.00,,---,15.00,VWS V14.01,2013-02-20 16:39:00,
2013-02-20 12:44:00,79.2,69.8,29.96,SE,135,2.0,0.0,73,0.00,,---,15.00,VWS V14.01,2013-02-20 16:44:00,
2013-02-20 12:49:00,79.4,70.4,29.96,ENE,68,9.2,0.0,74,0.00,,---,15.00,VWS V14.01,2013-02-20 16:49:00,
2013-02-20 12:54:00,79.4,70.4,29.96,North,0,4.3,0.0,74,0.00,,---,15.00,VWS V14.01,2013-02-20 16:54:00,
2013-02-20 12:59:00,79.7,70.7,29.95,SE,135,4.9,0.0,74,0.00,,---,15.00,VWS V14.01,2013-02-20 16:59:00,
2013-02-20 13:04:00,79.9,70.5,29.95,SSE,158,6.3,0.0,73,0.00,,---,15.00,VWS V14.01,2013-02-20 17:04:00,
2013-02-20 13:09:00,79.7,70.7,29.95,ESE,112,4.0,0.0,74,0.00,,---,15.00,VWS V14.01,2013-02-20 17:09:00,
2013-02-20 13:15:00,79.9,70.5,29.95,WSW,248,4.5,0.0,73,0.00,,---,15.00,VWS V14.01,2013-02-20 17:15:00,
2013-02-20 13:20:00,79.7,70.7,29.95,SSE,158,6.7,0.0,74,0.00,,---,15.00,VWS V14.01,2013-02-20 17:20:00,
2013-02-20 13:25:00,79.4,70.4,29.95,SE,135,6.3,0.0,74,0.00,,---,15.00,VWS V14.01,2013-02-20 17:25:00,
2013-02-20 13:30:00,79.6,70.6,29.94,ESE,112,4.5,0.0,74,0.00,,---,15.00,VWS V14.01,2013-02-20 17:30:00,
2013-02-20 13:35:00,79.9,70.9,29.94,South,180,6.5,0.0,74,0.00,,---,15.00,VWS V14.01,2013-02-20 17:35:00,
2013-02-20 13:40:00,79.6,70.2,29.94,NNW,338,3.4,0.0,73,0.00,,---,15.00,VWS V14.01,2013-02-20 17:40:00,
2013-02-20 13:45:00,79.6,70.6,29.94,NE,45,3.6,0.0,74,0.00,,---,15.00,VWS V14.01,2013-02-20 17:45:00,
2013-02-20 13:50:00,79.7,70.7,29.94,SE,135,6.5,0.0,74,0.00,,---,15.00,VWS V14.01,2013-02-20 17:50:00,
2013-02-20 13:55:00,79.9,70.9,29.94,NNW,338,2.9,0.0,74,0.00,,---,15.00,VWS V14.01,2013-02-20 17:55:00,
2013-02-20 14:00:00,80.5,71.1,29.93,ENE,68,4.9,0.0,73,0.00,,---,15.00,VWS V14.01,2013-02-20 18:00:00,
2013-02-20 14:05:00,80.6,70.3,29.93,ESE,112,4.9,0.0,71,0.00,,---,15.00,VWS V14.01,2013-02-20 18:05:00,
2013-02-20 14:11:00,80.6,70.3,29.92,ENE,68,5.1,0.0,71,0.00,,---,15.00,VWS V14.01,2013-02-20 18:11:00,
2013-02-20 14:16:00,80.6,70.8,29.92,East,90,4.5,0.0,72,0.00,,---,15.00,VWS V14.01,2013-02-20 18:16:00,
2013-02-20 14:21:00,80.3,70.5,29.92,SSE,158,2.5,0.0,72,0.00,,---,15.00,VWS V14.01,2013-02-20 18:21:00,
2013-02-20 14:26:00,80.3,70.9,29.92,SE,135,3.4,0.0,73,0.00,,---,15.00,VWS V14.01,2013-02-20 18:26:00,
2013-02-20 14:31:00,79.9,70.5,29.92,East,90,6.7,0.0,73,0.00,,---,15.00,VWS V14.01,2013-02-20 18:31:00,
2013-02-20 14:36:00,79.7,71.1,29.92,NE,45,4.7,0.0,75,0.00,,---,15.00,VWS V14.01,2013-02-20 18:36:00,
2013-02-20 14:41:00,78.8,71.4,29.92,ENE,68,5.4,0.0,78,0.00,,---,15.00,VWS V14.01,2013-02-20 18:41:00,
2013-02-20 14:46:00,78.1,71.4,29.92,ESE,112,5.8,0.0,80,0.00,,---,15.00,VWS V14.01,2013-02-20 18:46:00,
2013-02-20 14:51:00,77.0,70.7,29.91,ENE,68,5.4,0.0,81,0.00,,---,15.00,VWS V14.01,2013-02-20 18:51:00,
2013-02-20 14:56:00,76.7,70.4,29.91,ENE,68,3.1,0.0,81,0.00,,---,15.00,VWS V14.01,2013-02-20 18:56:00,
2013-02-20 15:01:00,77.0,71.1,29.91,NE,45,3.4,0.0,82,0.00,,---,15.00,VWS V14.01,2013-02-20 19:01:00,
2013-02-20 15:06:00,77.4,71.1,29.91,SE,135,4.3,0.0,81,0.00,,---,15.00,VWS V14.01,2013-02-20 19:06:00,
2013-02-20 15:11:00,77.6,70.9,29.91,NNW,338,4.5,0.0,80,0.00,,---,15.00,VWS V14.01,2013-02-20 19:11:00,
2013-02-20 15:16:00,77.4,70.8,29.91,NNE,22,2.9,0.0,80,0.00,,---,15.00,VWS V14.01,2013-02-20 19:16:00,
2013-02-20 15:21:00,77.0,70.7,29.90,NNW,338,3.1,0.0,81,0.00,,---,15.00,VWS V14.01,2013-02-20 19:21:00,
2013-02-20 15:26:00,76.7,70.8,29.90,NNE,22,4.0,0.0,82,0.00,,---,15.00,VWS V14.01,2013-02-20 19:26:00,
2013-02-20 15:31:00,76.3,70.8,29.90,SE,135,3.8,0.0,83,0.00,,---,15.00,VWS V14.01,2013-02-20 19:31:00,
2013-02-20 15:36:00,76.3,70.8,29.90,SE,135,6.7,0.0,83,0.00,,---,15.00,VWS V14.01,2013-02-20 19:36:00,
2013-02-20 15:41:00,76.1,70.6,29.90,SE,135,5.4,0.0,83,0.00,,---,15.00,VWS V14.01,2013-02-20 19:41:00,
2013-02-20 15:46:00,76.3,70.8,29.90,NNW,338,4.7,0.0,83,0.00,,---,15.00,VWS V14.01,2013-02-20 19:46:00,
2013-02-20 15:52:00,76.5,71.0,29.90,East,90,2.5,0.0,83,0.00,,---,15.00,VWS V14.01,2013-02-20 19:52:00,
2013-02-20 15:57:00,76.7,70.8,29.89,SE,135,4.7,0.0,82,0.00,,---,15.00,VWS V14.01,2013-02-20 19:57:00,
2013-02-20 16:02:00,76.9,70.6,29.89,SSE,158,2.5,0.0,81,0.00,,---,15.00,VWS V14.01,2013-02-20 20:02:00,
2013-02-20 16:07:00,76.9,70.3,29.90,SE,135,4.9,0.0,80,0.00,,---,15.00,VWS V14.01,2013-02-20 20:07:00,
2013-02-20 16:12:00,76.7,70.4,29.89,ENE,68,5.4,0.0,81,0.00,,---,15.00,VWS V14.01,2013-02-20 20:12:00,
2013-02-20 16:17:00,76.5,70.2,29.89,SSE,158,4.0,0.0,81,0.00,,---,15.00,VWS V14.01,2013-02-20 20:17:00,
2013-02-20 16:22:00,76.3,69.7,29.90,NE,45,6.0,0.0,80,0.00,,---,15.00,VWS V14.01,2013-02-20 20:22:00,
2013-02-20 16:27:00,76.5,69.9,29.90,ENE,68,4.9,0.0,80,0.00,,---,15.00,VWS V14.01,2013-02-20 20:27:00,
2013-02-20 16:32:00,76.7,70.1,29.90,SSW,202,5.1,0.0,80,0.00,,---,15.00,VWS V14.01,2013-02-20 20:32:00,
2013-02-20 16:37:00,76.7,70.4,29.89,SE,135,4.7,0.0,81,0.00,,---,15.00,VWS V14.01,2013-02-20 20:37:00,
2013-02-20 16:42:00,76.7,70.1,29.89,NE,45,5.4,0.0,80,0.00,,---,15.00,VWS V14.01,2013-02-20 20:42:00,
2013-02-20 16:47:00,76.5,69.5,29.90,ENE,68,7.6,0.0,79,0.00,,---,15.00,VWS V14.01,2013-02-20 20:47:00,
2013-02-20 16:52:00,76.5,69.5,29.90,East,90,5.1,0.0,79,0.00,,---,15.00,VWS V14.01,2013-02-20 20:52:00,
2013-02-20 16:57:00,76.5,69.5,29.90,SE,135,5.8,0.0,79,0.00,,---,15.00,VWS V14.01,2013-02-20 20:57:00,
2013-02-20 17:02:00,76.3,69.3,29.90,SE,135,5.6,0.0,79,0.00,,---,15.00,VWS V14.01,2013-02-20 21:02:00,
2013-02-20 17:07:00,76.3,69.3,29.90,NNE,22,6.3,0.0,79,0.00,,---,15.00,VWS V14.01,2013-02-20 21:07:00,
2013-02-20 17:12:00,76.3,68.9,29.91,SSE,158,10.3,0.0,78,0.00,,---,15.00,VWS V14.01,2013-02-20 21:12:00,
2013-02-20 17:17:00,76.5,69.1,29.90,SE,135,7.4,0.0,78,0.00,,---,15.00,VWS V14.01,2013-02-20 21:17:00,
2013-02-20 17:22:00,76.7,69.7,29.91,SSE,158,4.5,0.0,79,0.00,,---,15.00,VWS V14.01,2013-02-20 21:22:00,
2013-02-20 17:27:00,76.7,70.1,29.91,NNW,338,3.4,0.0,80,0.00,,---,15.00,VWS V14.01,2013-02-20 21:27:00,
2013-02-20 17:32:00,76.5,70.2,29.91,NE,45,3.4,0.0,81,0.00,,---,15.00,VWS V14.01,2013-02-20 21:32:00,
2013-02-20 17:37:00,76.3,69.7,29.91,NE,45,3.6,0.0,80,0.00,,---,15.00,VWS V14.01,2013-02-20 21:37:00,
2013-02-20 17:43:00,76.1,69.5,29.91,East,90,5.8,0.0,80,0.00,,---,15.00,VWS V14.01,2013-02-20 21:43:00,
2013-02-20 17:48:00,76.1,69.5,29.92,North,0,4.3,0.0,80,0.00,,---,15.00,VWS V14.01,2013-02-20 21:48:00,
2013-02-20 17:53:00,76.1,69.8,29.91,NNE,22,4.3,0.0,81,0.00,,---,15.00,VWS V14.01,2013-02-20 21:53:00,
2013-02-20 17:58:00,76.1,69.8,29.91,SSE,158,3.4,0.0,81,0.00,,---,15.00,VWS V14.01,2013-02-20 21:58:00,
2013-02-20 18:03:00,76.0,69.4,29.91,East,90,6.5,0.0,80,0.00,,---,15.00,VWS V14.01,2013-02-20 22:03:00,
2013-02-20 18:08:00,76.0,69.4,29.92,East,90,8.5,0.0,80,0.00,,---,15.00,VWS V14.01,2013-02-20 22:08:00,
2013-02-20 18:13:00,76.0,69.0,29.91,SE,135,4.9,0.0,79,0.00,,---,15.00,VWS V14.01,2013-02-20 22:13:00,
2013-02-20 18:18:00,76.0,69.0,29.91,SE,135,3.6,0.0,79,0.00,,---,15.00,VWS V14.01,2013-02-20 22:18:00,
2013-02-20 18:23:00,75.8,68.8,29.91,ESE,112,4.3,0.0,79,0.00,,---,15.00,VWS V14.01,2013-02-20 22:23:00,
2013-02-20 18:28:00,76.0,69.0,29.91,SSE,158,4.0,0.0,79,0.00,,---,15.00,VWS V14.01,2013-02-20 22:28:00,
2013-02-20 18:33:00,76.0,69.0,29.91,West,270,2.5,0.0,79,0.00,,---,15.00,VWS V14.01,2013-02-20 22:33:00,
2013-02-20 18:38:00,76.0,69.0,29.92,ESE,112,3.4,0.0,79,0.00,,---,15.00,VWS V14.01,2013-02-20 22:38:00,
2013-02-20 18:43:00,76.0,69.0,29.92,ENE,68,5.4,0.0,79,0.00,,---,15.00,VWS V14.01,2013-02-20 22:43:00,
2013-02-20 18:48:00,76.0,68.7,29.92,SE,135,4.3,0.0,78,0.00,,---,15.00,VWS V14.01,2013-02-20 22:48:00,
2013-02-20 18:53:00,76.0,69.0,29.92,ESE,112,3.1,0.0,79,0.00,,---,15.00,VWS V14.01,2013-02-20 22:53:00,
2013-02-20 18:58:00,75.8,68.8,29.92,NE,45,4.9,0.0,79,0.00,,---,15.00,VWS V14.01,2013-02-20 22:58:00,
2013-02-20 19:03:00,75.8,68.5,29.92,East,90,3.1,0.0,78,0.00,,---,15.00,VWS V14.01,2013-02-20 23:03:00,
2013-02-20 19:08:00,75.8,68.5,29.93,SE,135,4.0,0.0,78,0.00,,---,15.00,VWS V14.01,2013-02-20 23:08:00,
2013-02-20 19:13:00,75.8,68.5,29.93,SSW,202,4.0,0.0,78,0.00,,---,15.00,VWS V14.01,2013-02-20 23:13:00,
2013-02-20 19:18:00,75.8,68.5,29.93,South,180,6.0,0.0,78,0.00,,---,15.00,VWS V14.01,2013-02-20 23:18:00,
2013-02-20 19:24:00,75.8,68.1,29.93,South,180,6.3,0.0,77,0.00,,---,15.00,VWS V14.01,2013-02-20 23:24:00,
2013-02-20 19:29:00,75.8,67.7,29.93,East,90,6.9,0.0,76,0.00,,---,15.00,VWS V14.01,2013-02-20 23:29:00,
2013-02-20 19:34:00,75.8,68.1,29.93,SE,135,9.2,0.0,77,0.00,,---,15.00,VWS V14.01,2013-02-20 23:34:00,
2013-02-20 19:39:00,75.8,68.5,29.94,NE,45,6.5,0.0,78,0.00,,---,15.00,VWS V14.01,2013-02-20 23:39:00,
2013-02-20 19:44:00,76.0,68.3,29.94,South,180,4.0,0.0,77,0.00,,---,15.00,VWS V14.01,2013-02-20 23:44:00,
2013-02-20 19:49:00,76.0,68.3,29.94,ESE,112,3.4,0.0,77,0.00,,---,15.00,VWS V14.01,2013-02-20 23:49:00,
2013-02-20 19:54:00,76.1,68.8,29.94,ENE,68,4.7,0.0,78,0.00,,---,15.00,VWS V14.01,2013-02-20 23:54:00,
2013-02-20 19:59:00,76.0,68.7,29.94,North,0,3.1,0.0,78,0.00,,---,15.00,VWS V14.01,2013-02-20 23:59:00,
2013-02-20 20:04:00,75.8,68.5,29.94,ENE,68,3.6,0.0,78,0.00,,---,15.00,VWS V14.01,2013-02-21 00:04:00,
2013-02-20 20:09:00,75.8,68.5,29.94,SSE,158,6.5,0.0,78,0.00,,---,15.00,VWS V14.01,2013-02-21 00:09:00,
2013-02-20 20:14:00,75.8,68.8,29.95,SSE,158,4.0,0.0,79,0.00,,---,15.00,VWS V14.01,2013-02-21 00:14:00,
2013-02-20 20:19:00,75.8,69.2,29.95,North,0,5.4,0.0,80,0.00,,---,15.00,VWS V14.01,2013-02-21 00:19:00,
2013-02-20 20:24:00,75.8,69.6,29.95,East,90,3.4,0.0,81,0.00,,---,15.00,VWS V14.01,2013-02-21 00:24:00,
2013-02-20 20:29:00,75.6,69.0,29.95,SE,135,5.4,0.0,80,0.00,,---,15.00,VWS V14.01,2013-02-21 00:29:00,
2013-02-20 20:34:00,75.6,68.3,29.95,SE,135,6.0,0.0,78,0.00,,---,15.00,VWS V14.01,2013-02-21 00:34:00,
2013-02-20 20:39:00,75.6,68.6,29.96,ENE,68,5.6,0.0,79,0.00,,---,15.00,VWS V14.01,2013-02-21 00:39:00,
2013-02-20 20:45:00,75.8,68.8,29.96,NE,45,5.8,0.0,79,0.00,,---,15.00,VWS V14.01,2013-02-21 00:45:00,
2013-02-20 20:50:00,75.8,68.5,29.96,SE,135,3.6,0.0,78,0.00,,---,15.00,VWS V14.01,2013-02-21 00:50:00,
2013-02-20 20:55:00,75.8,68.5,29.96,SW,225,2.9,0.0,78,0.00,,---,15.00,VWS V14.01,2013-02-21 00:55:00,
2013-02-20 21:00:00,76.0,68.7,29.96,ESE,112,3.6,0.0,78,0.00,,---,15.00,VWS V14.01,2013-02-21 01:00:00,
2013-02-20 21:05:00,76.1,68.8,29.96,NNE,22,2.7,0.0,78,0.00,,---,15.00,VWS V14.01,2013-02-21 01:05:00,
2013-02-20 21:10:00,76.1,69.1,29.96,NNE,22,4.9,0.0,79,0.00,,---,15.00,VWS V14.01,2013-02-21 01:10:00,
2013-02-20 21:15:00,76.0,69.0,29.96,ENE,68,3.4,0.0,79,0.00,,---,15.00,VWS V14.01,2013-02-21 01:15:00,
2013-02-20 21:20:00,76.0,69.4,29.96,NNE,22,4.5,0.0,80,0.00,,---,15.00,VWS V14.01,2013-02-21 01:20:00,
2013-02-20 21:25:00,76.0,69.4,29.96,SE,135,4.5,0.0,80,0.00,,---,15.00,VWS V14.01,2013-02-21 01:25:00,
2013-02-20 21:30:00,75.8,69.2,29.97,NE,45,4.5,0.0,80,0.00,,---,15.00,VWS V14.01,2013-02-21 01:30:00,
2013-02-20 21:35:00,75.8,69.6,29.96,SE,135,5.1,0.0,81,0.00,,---,15.00,VWS V14.01,2013-02-21 01:35:00,
2013-02-20 21:40:00,75.8,69.2,29.96,ESE,112,5.4,0.0,80,0.00,,---,15.00,VWS V14.01,2013-02-21 01:40:00,
2013-02-20 21:45:00,76.0,69.4,29.96,East,90,3.4,0.0,80,0.00,,---,15.00,VWS V14.01,2013-02-21 01:45:00,
2013-02-20 21:50:00,76.0,69.4,29.96,South,180,6.3,0.0,80,0.00,,---,15.00,VWS V14.01,2013-02-21 01:50:00,
2013-02-20 21:55:00,75.8,68.8,29.97,South,180,3.6,0.0,79,0.00,,---,15.00,VWS V14.01,2013-02-21 01:55:00,
2013-02-20 22:00:00,75.8,69.2,29.97,East,90,6.3,0.0,80,0.00,,---,15.00,VWS V14.01,2013-02-21 02:00:00,
2013-02-20 22:05:00,75.8,68.8,29.97,SE,135,4.3,0.0,79,0.00,,---,15.00,VWS V14.01,2013-02-21 02:05:00,
2013-02-20 22:11:00,75.8,68.5,29.97,SSE,158,4.0,0.0,78,0.00,,---,15.00,VWS V14.01,2013-02-21 02:11:00,
2013-02-20 22:16:00,76.0,68.7,29.97,ESE,112,4.7,0.0,78,0.00,,---,15.00,VWS V14.01,2013-02-21 02:16:00,
2013-02-20 22:21:00,76.0,68.7,29.97,SW,225,4.3,0.0,78,0.00,,---,15.00,VWS V14.01,2013-02-21 02:21:00,
2013-02-20 22:26:00,76.1,69.1,29.98,ENE,68,5.4,0.0,79,0.00,,---,15.00,VWS V14.01,2013-02-21 02:26:00,
2013-02-20 22:31:00,76.0,69.0,29.98,NE,45,3.1,0.0,79,0.00,,---,15.00,VWS V14.01,2013-02-21 02:31:00,
2013-02-20 22:36:00,75.8,68.8,29.98,ESE,112,6.3,0.0,79,0.00,,---,15.00,VWS V14.01,2013-02-21 02:36:00,
2013-02-20 22:41:00,75.6,68.3,29.98,East,90,5.4,0.0,78,0.00,,---,15.00,VWS V14.01,2013-02-21 02:41:00,
2013-02-20 22:46:00,75.6,68.3,29.98,SSW,202,4.9,0.0,78,0.00,,---,15.00,VWS V14.01,2013-02-21 02:46:00,
2013-02-20 22:51:00,75.6,68.3,29.98,SSE,158,7.2,0.0,78,0.00,,---,15.00,VWS V14.01,2013-02-21 02:51:00,
2013-02-20 22:56:00,75.6,68.3,29.98,SE,135,7.2,0.0,78,0.00,,---,15.00,VWS V14.01,2013-02-21 02:56:00,
2013-02-20 23:01:00,75.6,68.3,29.98,SSE,158,4.3,0.0,78,0.00,,---,15.00,VWS V14.01,2013-02-21 03:01:00,
2013-02-20 23:06:00,75.6,67.9,29.97,ENE,68,4.5,0.0,77,0.00,,---,15.00,VWS V14.01,2013-02-21 03:06:00,
2013-02-20 23:11:00,75.6,67.9,29.97,ESE,112,6.5,0.0,77,0.00,,---,15.00,VWS V14.01,2013-02-21 03:11:00,
2013-02-20 23:16:00,75.6,68.3,29.97,SE,135,5.6,0.0,78,0.00,,---,15.00,VWS V14.01,2013-02-21 03:16:00,
2013-02-20 23:21:00,75.6,68.3,29.96,SE,135,5.1,0.0,78,0.00,,---,15.00,VWS V14.01,2013-02-21 03:21:00,
2013-02-20 23:26:00,75.6,68.3,29.96,SSE,158,4.9,0.0,78,0.00,,---,15.00,VWS V14.01,2013-02-21 03:26:00,
2013-02-20 23:31:00,75.6,67.9,29.96,SE,135,6.3,0.0,77,0.00,,---,15.00,VWS V14.01,2013-02-21 03:31:00,
2013-02-20 23:36:00,75.8,68.5,29.96,ESE,112,4.7,0.0,78,0.00,,---,15.00,VWS V14.01,2013-02-21 03:36:00,
2013-02-20 23:41:00,75.8,68.5,29.96,SW,225,3.4,0.0,78,0.00,,---,15.00,VWS V14.01,2013-02-21 03:41:00,
2013-02-20 23:46:00,75.6,68.6,29.96,ESE,112,2.5,0.0,79,0.00,,---,15.00,VWS V14.01,2013-02-21 03:46:00,
2013-02-20 23:51:00,75.2,68.2,29.96,South,180,3.6,0.0,79,0.00,,---,15.00,VWS V14.01,2013-02-21 03:51:00,
2013-02-20 23:56:00,75.2,68.2,29.96,ESE,112,2.5,0.0,79,0.00,,---,15.00,VWS V14.01,2013-02-21 03:56:00,